This is the latest recevied weather packets stored in our database for station/object AK4NG. If no packets are shown the sender has not sent any weather packets the latest 10 day(s).
| Time | Temp. | Humidity | Pressure | Rain* | Wind** | Luminosity | Snow |
|---|---|---|---|---|---|---|---|
| 1777626573 | 13.89° C | 96% | 1013.6 hPa | 0 mm | - | 0 W/m² | - |
| 1777626268 | 13.89° C | 96% | 1013.4 hPa | 0 mm | - | 0 W/m² | - |
| 1777625966 | 13.89° C | 96% | 1013.4 hPa | 0 mm | - | 0 W/m² | - |
| 1777625662 | 13.89° C | 96% | 1013.3 hPa | 0 mm | - | 0 W/m² | - |
| 1777625358 | 13.89° C | 95% | 1013.2 hPa | 0 mm | - | 0 W/m² | - |
| 1777625055 | 13.89° C | 95% | 1013.2 hPa | 0 mm | - | 0 W/m² | - |
| 1777624751 | 13.89° C | 95% | 1013 hPa | 0 mm | - | 0 W/m² | - |
| 1777624446 | 13.89° C | 95% | 1013 hPa | 0 mm | - | 0 W/m² | - |
| 1777624144 | 13.89° C | 95% | 1013.2 hPa | 0 mm | - | 0 W/m² | - |
| 1777623840 | 13.89° C | 95% | 1013.5 hPa | 0 mm | - | 0 W/m² | - |
| 1777623537 | 14.44° C | 95% | 1013.5 hPa | 1.27 mm | - | 0 W/m² | - |
| 1777623235 | 14.44° C | 95% | 1013.8 hPa | 1.27 mm | - | 0 W/m² | - |
| 1777622931 | 14.44° C | 95% | 1013.6 hPa | 0 mm | - | 0 W/m² | - |
| 1777622628 | 15° C | 94% | 1013.7 hPa | 0 mm | - | 0 W/m² | - |
| 1777622324 | 15° C | 94% | 1013.8 hPa | 0 mm | - | 0 W/m² | - |
| 1777622021 | 15° C | 93% | 1013.9 hPa | 0 mm | - | 0 W/m² | - |
| 1777621716 | 15° C | 93% | 1013.9 hPa | 0 mm | - | 0 W/m² | - |
| 1777621413 | 15° C | 93% | 1014.1 hPa | 0 mm | - | 0 W/m² | - |
| 1777621108 | 15.56° C | 93% | 1014 hPa | 0 mm | - | 0 W/m² | - |
| 1777620805 | 15.56° C | 92% | 1014.2 hPa | 0 mm | - | 0 W/m² | - |
| 1777620501 | 15.56° C | 92% | 1014.3 hPa | 1.78 mm | - | 0 W/m² | - |
| 1777620199 | 15.56° C | 91% | 1014.1 hPa | 4.83 mm | - | 0 W/m² | - |
| 1777619896 | 16.11° C | 89% | 1014.1 hPa | 3.05 mm | - | 0 W/m² | - |
| 1777619591 | 16.67° C | 87% | 1013.9 hPa | 0 mm | - | 0 W/m² | - |
| 1777619286 | 16.67° C | 85% | 1013.7 hPa | 0 mm | - | 0 W/m² | - |
* Rain latest hour (hover to see other rain measurements)
** Current wind speed in m/s (hover to see current wind gust speed)